Weather History for KAPC - June, 2013

Change the Weather History Date:

Thursday, June 20, 2013

  Actual Average Record
Temperature  
Mean Temperature 64 °F 65 °F  
Max Temperature 82 °F 79 °F 103 °F (2008)
Min Temperature 45 °F 51 °F 42 °F (2010)
Degree Days  
Heating Degree Days 1    
Month to date heating degree days 23  
Since 1 June heating degree days 23  
Since 1 July heating degree days 2868  
Cooling Degree Days 0    
Month to date cooling degree days 21  
Year to date cooling degree days 41  
Since 1 June cooling degree days 21  
Growing Degree Days 13 (Base 50)    
Moisture  
Dew Point 46 °F    
Average Humidity 59    
Maximum Humidity 89    
Minimum Humidity 28    
Precipitation  
Precipitation T in - 0.01 in (2005)
Month to date precipitation T  
Year to date precipitation 1.78  
Since 1 July precipitation 9.57  
Sea Level Pressure  
Sea Level Pressure 29.94 in    
Wind  
Wind Speed 7 mph (WSW)    
Max Wind Speed 20 mph    
Max Gust Speed 24 mph    
Visibility 10 miles    
Events      
T = Trace of Precipitation, MM = Missing Value Source: NWS Daily Summary

Daily Weather History Graph

Daily Weather History Graph

Search for Another Location

Airport or City:

Trip Planner

Search our weather history database for the weather conditions in past years. The results will help you decide how hot, cold, wet, or windy it might be!

Date:

Astronomy

Jun. 20, 2013 Rise Set
Actual Time 5:45 AM PDT 8:35 PM PDT
Civil Twilight 5:14 AM PDT 9:07 PM PDT
Nautical Twilight 4:34 AM PDT 9:46 PM PDT
Astronomical Twilight 3:49 AM PDT 10:32 PM PDT
Moon 5:45 PM PDT (6/20) 3:14 AM PDT (6/20)
Length of Visible Light 15h 52m
Length of Day
14h 49m
Waxing Gibbous, 89% of the Moon is Illuminated
Jun 20
Waxing Gibbous
Jun 23
Full
Jun 29
Last Quarter
Jul 8
New
Jul 15
First Quarter

Hourly Weather History & Observations

Time (PDT) Temp. Dew Point Humidity Pressure Visibility Wind Dir Wind Speed Gust Speed Precip Events Conditions
12:54 AM 54.0 °F 46.0 °F 75% 29.97 in 10.0 mi West 8.1 mph - N/A   Clear
1:54 AM 53.1 °F 46.0 °F 77% 29.96 in 10.0 mi West 5.8 mph - N/A   Clear
2:54 AM 50.0 °F 44.1 °F 80% 29.96 in 10.0 mi West 3.5 mph - N/A   Clear
3:54 AM 48.0 °F 43.0 °F 83% 29.95 in 10.0 mi West 3.5 mph - N/A   Clear
4:54 AM 45.0 °F 41.0 °F 86% 29.95 in 10.0 mi Calm Calm - N/A   Clear
5:54 AM 46.0 °F 41.0 °F 83% 29.96 in 10.0 mi Calm Calm - N/A   Clear
6:54 AM 51.1 °F 46.0 °F 83% 29.97 in 10.0 mi Calm Calm - N/A   Clear
7:54 AM 57.9 °F 45.0 °F 62% 29.97 in 10.0 mi Calm Calm - N/A   Clear
8:54 AM 60.1 °F 46.0 °F 60% 29.97 in 10.0 mi Calm Calm - N/A   Clear
9:54 AM 66.0 °F 46.0 °F 48% 29.96 in 10.0 mi West 4.6 mph - N/A   Clear
10:54 AM 70.0 °F 46.9 °F 44% 29.96 in 10.0 mi SSW 6.9 mph - N/A   Clear
11:54 AM 73.0 °F 46.9 °F 39% 29.95 in 10.0 mi SSW 10.4 mph - N/A   Clear
12:54 PM 77.0 °F 48.0 °F 36% 29.93 in 10.0 mi SSW 12.7 mph - N/A   Clear
1:54 PM 79.0 °F 48.0 °F 34% 29.91 in 10.0 mi SSW 15.0 mph - N/A   Clear
2:54 PM 79.0 °F 48.9 °F 35% 29.91 in 10.0 mi SSW 18.4 mph - N/A   Clear
3:54 PM 81.0 °F 44.1 °F 27% 29.91 in 10.0 mi West 13.8 mph 21.9 mph N/A   Clear
4:54 PM 79.0 °F 42.1 °F 27% 29.90 in 10.0 mi West 17.3 mph 23.0 mph 0.00 in   Clear
5:54 PM 75.9 °F 44.1 °F 32% 29.89 in 10.0 mi WSW 13.8 mph - N/A   Clear
6:54 PM 72.0 °F 45.0 °F 38% 29.90 in 10.0 mi Variable 4.6 mph - N/A   Clear
7:54 PM 66.0 °F 46.0 °F 48% 29.91 in 10.0 mi WSW 9.2 mph - N/A   Clear
8:54 PM 61.0 °F 46.0 °F 58% 29.92 in 10.0 mi South 8.1 mph - N/A   Clear
9:54 PM 57.0 °F 48.0 °F 72% 29.93 in 10.0 mi WSW 5.8 mph - N/A   Clear
10:54 PM 55.9 °F 48.0 °F 75% 29.94 in 10.0 mi SW 9.2 mph - N/A   Clear
11:54 PM 55.0 °F 48.0 °F 77% 29.94 in 10.0 mi SW 9.2 mph - N/A   Clear